Satellite-Ground Cal/Val Region Overpasses Predictions

Prediction of Satellite NPP Overpassing Cal/Val Region: PacNW

Region Location: (Latitude: 10.00, Longitude: 139.50) to (Latitude: 22.70, Longitude: 165.60).

Table of predicted overpasses for the next 14.0 days since TLE Epoch: 8/18/2017
Interval Starting Time Starting Location Ending Time Ending Location
1 08/19/2017 02:10:26 ( 19.67, 165.59) 08/19/2017 02:11:17 ( 22.66, 164.85)
2 08/19/2017 03:49:12 ( 10.04, 142.48) 08/19/2017 03:52:45 ( 22.55, 139.51)
3 08/19/2017 14:39:36 ( 22.65, 165.09) 08/19/2017 14:43:11 ( 10.03, 162.09)
4 08/19/2017 16:21:06 ( 22.64, 139.72) 08/19/2017 16:21:20 ( 21.82, 139.51)
5 08/20/2017 03:30:11 ( 10.02, 147.24) 08/20/2017 03:33:46 ( 22.64, 144.24)
6 08/20/2017 16:02:04 ( 22.67, 144.48) 08/20/2017 16:05:39 ( 10.05, 141.47)
7 08/21/2017 03:11:10 ( 10.06, 151.99) 08/21/2017 03:14:45 ( 22.68, 148.99)
8 08/21/2017 15:43:03 ( 22.69, 149.24) 08/21/2017 15:46:39 ( 10.02, 146.22)
9 08/22/2017 02:52:09 ( 10.03, 156.75) 08/22/2017 02:55:44 ( 22.65, 153.75)
10 08/22/2017 15:24:02 ( 22.66, 153.99) 08/22/2017 15:27:37 ( 10.04, 150.98)
11 08/23/2017 02:33:07 ( 10.01, 161.51) 08/23/2017 02:36:43 ( 22.69, 158.49)
12 08/23/2017 15:05:01 ( 22.68, 158.75) 08/23/2017 15:08:37 ( 10.00, 155.73)
13 08/24/2017 02:14:56 ( 12.92, 165.60) 08/24/2017 02:17:42 ( 22.67, 163.25)
14 08/24/2017 03:55:37 ( 10.05, 140.88) 08/24/2017 03:57:18 ( 15.98, 139.51)
15 08/24/2017 14:46:01 ( 22.65, 163.49) 08/24/2017 14:49:36 ( 10.03, 160.49)
16 08/25/2017 03:36:35 ( 10.03, 145.64) 08/25/2017 03:40:10 ( 22.65, 142.64)
17 08/25/2017 14:30:09 ( 11.52, 165.59) 08/25/2017 14:30:34 ( 10.05, 165.25)
18 08/25/2017 16:08:29 ( 22.67, 142.88) 08/25/2017 16:12:04 ( 10.05, 139.88)
19 08/26/2017 03:17:34 ( 10.00, 150.40) 08/26/2017 03:21:10 ( 22.68, 147.39)
20 08/26/2017 15:49:28 ( 22.69, 147.64) 08/26/2017 15:53:04 ( 10.01, 144.62)
21 08/27/2017 02:58:33 ( 10.04, 155.15) 08/27/2017 03:02:08 ( 22.66, 152.15)
22 08/27/2017 15:30:27 ( 22.65, 152.39) 08/27/2017 15:34:02 ( 10.04, 149.38)
23 08/28/2017 02:39:32 ( 10.02, 159.91) 08/28/2017 02:43:08 ( 22.70, 156.89)
24 08/28/2017 15:11:26 ( 22.68, 157.15) 08/28/2017 15:15:01 ( 10.06, 154.14)
25 08/29/2017 02:20:31 ( 10.06, 164.66) 08/29/2017 02:24:06 ( 22.68, 161.65)
26 08/29/2017 14:52:24 ( 22.70, 161.91) 08/29/2017 14:56:00 ( 10.02, 158.89)
27 08/30/2017 03:43:00 ( 10.04, 144.04) 08/30/2017 03:46:35 ( 22.66, 141.04)
28 08/30/2017 14:34:38 ( 18.32, 165.59) 08/30/2017 14:36:59 ( 10.04, 163.65)
29 08/30/2017 16:14:54 ( 22.66, 141.28) 08/30/2017 16:16:59 ( 15.33, 139.50)
30 08/31/2017 03:23:58 ( 10.02, 148.80) 08/31/2017 03:27:34 ( 22.70, 145.78)
31 08/31/2017 15:55:52 ( 22.68, 146.04) 08/31/2017 15:59:28 ( 10.00, 143.02)
32 09/01/2017 03:04:58 ( 10.06, 153.55) 09/01/2017 03:08:33 ( 22.68, 150.54)


NCC Satellite Cal/Val Overpasses Prediction Service
